This is the latest recevied weather packets stored in our database for station/object K7KAZ. If no packets are shown the sender has not sent any weather packets the latest 10 day(s).
| Time | Temp. | Humidity | Pressure | Rain* | Wind** | Luminosity | Snow |
|---|---|---|---|---|---|---|---|
| 1777981770 | 17.22° C | 70% | 1013 hPa | 0 mm | - | 0 W/m² | - |
| 1777981466 | 17.22° C | 70% | 1013.2 hPa | 0 mm | - | 0 W/m² | - |
| 1777981162 | 17.22° C | 70% | 1013 hPa | 0 mm | - | 0 W/m² | - |
| 1777980859 | 17.22° C | 70% | 1013.2 hPa | 0 mm | - | 0 W/m² | - |
| 1777980555 | 17.22° C | 70% | 1013.3 hPa | 0 mm | - | 0 W/m² | - |
| 1777980253 | 17.22° C | 69% | 1013 hPa | 0 mm | - | 0 W/m² | - |
| 1777979948 | 17.78° C | 69% | 1013 hPa | 0 mm | - | 0 W/m² | - |
| 1777979643 | 17.78° C | 68% | 1013.2 hPa | 0 mm | - | 0 W/m² | - |
| 1777979340 | 17.78° C | 67% | 1012.9 hPa | 0 mm | - | 0 W/m² | - |
| 1777979037 | 17.78° C | 67% | 1013.4 hPa | 0 mm | - | 0 W/m² | - |
| 1777978733 | 17.78° C | 67% | 1013.4 hPa | 0 mm | - | 0 W/m² | - |
| 1777978430 | 17.78° C | 68% | 1013.6 hPa | 0 mm | - | 0 W/m² | - |
| 1777978126 | 17.78° C | 68% | 1013.5 hPa | 0 mm | - | 0 W/m² | - |
| 1777977824 | 17.78° C | 68% | 1013.7 hPa | 0 mm | - | 0 W/m² | - |
| 1777977519 | 17.78° C | 67% | 1013.8 hPa | 0 mm | - | 0 W/m² | - |
| 1777977218 | 17.78° C | 68% | 1013.6 hPa | 0 mm | - | 0 W/m² | - |
| 1777976915 | 17.78° C | 66% | 1013.9 hPa | 0 mm | - | 0 W/m² | - |
| 1777976612 | 17.78° C | 65% | 1013.7 hPa | 0 mm | - | 0 W/m² | - |
| 1777976307 | 18.33° C | 63% | 1013.6 hPa | 0 mm | - | 0 W/m² | - |
| 1777976002 | 18.33° C | 62% | 1013.9 hPa | 0 mm | - | 0 W/m² | - |
| 1777975698 | 18.89° C | 57% | 1013.8 hPa | 0 mm | - | 0 W/m² | - |
| 1777975395 | 18.89° C | 54% | 1014.1 hPa | 0 mm | - | 0 W/m² | - |
| 1777975091 | 19.44° C | 51% | 1013.9 hPa | 0 mm | - | 0 W/m² | - |
| 1777974789 | 19.44° C | 51% | 1014.1 hPa | 0 mm | - | 0 W/m² | - |
| 1777974484 | 20° C | 48% | 1014.1 hPa | 0 mm | - | 0 W/m² | - |
* Rain latest hour (hover to see other rain measurements)
** Current wind speed in m/s (hover to see current wind gust speed)